Snowfall_Accumulation
0.0 0.0 0.0 0.0 0.0 0.0 0.0 0.0 0.0 0.0 0.0 0.0 0.0 0.0 0.0 0.0 0.0 0.0 0.0 0.0 0.0 0.0 0.0 0.0 0.0 0.0 0.0 0.0 0.0 0.0 0.0 0.0 0.0 0.0 0.0 0.0 0.0 0.0 0.0 0.0 0.0 0.0 0.0 0.0
0.0 0.0 0.0 0.0 0.0 0.0 0.0 0.0 0.0 0.0 0.0 0.0 0.0 0.0 0.0 0.0 0.0 0.0 0.0 0.0 0.0 0.0 0.0 0.0 0.0 0.0 0.0 0.0 0.0 0.0 0.0 0.0 0.0 0.0 0.0 0.0 0.0 0.0 0.0 0.0 0.0 0.0 0.0 0.0
0.0 0.0 0.0 0.0 0.0 0.0 0.0 0.0 0.0 0.0 0.0 0.0 0.0 0.0 0.0 0.0 0.0 0.0 0.0 0.0 0.0 0.0 0.0 0.0 0.0 0.0 0.0 0.0 0.0 0.0 0.0 0.0 0.0 0.0 0.0 0.0 0.0 0.0 0.0 0.0 0.0 0.0 0.0 0.0
0.0 0.0 0.0 0.0 0.0 0.0 0.0 0.0 0.0 0.0 0.0 0.0 0.0 0.0 0.0 0.0 0.0 0.0 0.0 0.0 0.0 0.0 0.0 0.0 0.0 0.0 0.0 0.0 0.0 0.0 0.0 0.0 0.0 0.0 0.0 0.0 0.0 0.0 0.0 0.0 0.0 0.0 0.0 0.0
0.0 0.0 0.0 0.0 0.0 0.0 0.0 0.0 0.0 0.0 0.0 0.0 0.0 0.0 0.0 0.0 0.0 0.0 0.0 0.0 0.0 0.0 0.0 0.0 0.0 0.0 0.0 0.0 0.0 0.0 0.0 0.0 0.0 0.0 0.0 0.0 0.0 0.0 0.0 0.0 0.0 0.0 0.0 0.0
0.0 0.0 0.0 0.0 0.0 0.0 0.0 0.0 0.0 0.0 0.0 0.3 0.0 0.0 0.0 0.0 0.0 0.0 0.0 0.0 0.0 0.0 0.0 0.0 0.0 0.0 0.0 0.0 0.0 0.0 0.0 0.0 0.0 0.0 0.0 0.0 0.0 0.0 0.0 0.0 0.0 0.0 0.0 0.0
0.0 0.0 0.0 0.0 0.0 0.0 0.0 0.0 0.4 0.9 2.1 1.2 0.0 0.2 0.0 0.0 0.0 0.0 0.0 0.0 0.0 0.0 0.0 0.0 0.0 0.0 0.0 0.0 0.0 0.0 0.0 0.0 0.0 0.0 0.0 0.0 0.0 0.0 0.0 0.0 0.0 0.0 0.0 0.0
0.0 0.0 0.0 0.0 0.0 0.0 0.0 0.0 0.8 2.9 2.3 0.8 0.3 0.4 0.0 0.0 0.0 0.0 0.0 0.0 0.0 0.0 0.0 0.0 0.0 0.0 0.0 0.0 0.0 0.0 0.0 0.0 0.0 0.0 0.0 0.0 0.0 0.0 0.0 0.0 0.0 0.0 0.0 0.0
0.0 0.0 0.0 0.0 0.0 0.0 0.0 0.0 0.0 0.5 5.0 3.7 0.0 0.0 0.0 0.0 0.0 0.0 0.0 0.0 0.0 0.0 0.0 0.0 0.0 0.0 0.0 0.0 0.0 0.0 0.0 0.0 0.0 0.0 0.0 0.0 0.0 0.0 0.0 0.0 0.0 0.0 0.0 0.0
0.0 0.1 0.0 0.0 0.0 0.0 0.0 0.0 0.4 0.4 5.3 4.2 0.0 0.0 0.0 0.0 0.0 0.0 0.0 0.0 0.0 0.0 0.0 0.0 0.0 0.0 0.0 0.0 0.0 0.0 0.0 0.0 0.0 0.0 0.0 0.0 0.0 0.0 0.0 0.0 0.0 0.0 0.0 0.0
0.0 0.0 0.0 0.0 0.0 0.0 0.0 0.0 0.0 0.0 0.5 2.9 2.4 0.3 0.0 0.0 0.0 0.0 0.0 0.0 0.0 0.0 0.0 0.0 0.0 0.0 0.0 0.0 0.0 0.0 0.0 0.0 0.0 0.0 0.0 0.0 0.0 0.0 0.0 0.0 0.0 0.0 0.0 0.0
0.0 0.0 1.1 0.0 0.0 0.0 0.0 0.0 0.0 0.9 0.7 0.7 1.5 0.9 0.0 0.0 0.0 0.0 0.0 0.0 0.0 0.0 0.0 0.0 0.0 0.0 0.0 0.0 0.0 0.0 0.0 0.0 0.0 0.0 0.0 0.0 0.0 0.0 0.0 0.0 0.0 0.0 0.0 0.0
0.0 1.6 5.1 2.6 0.0 0.0 0.0 0.0 0.0 0.0 0.4 1.2 5.5 1.1 0.0 0.0 0.0 0.0 0.0 0.0 0.0 0.0 0.0 0.0 0.0 0.0 0.0 0.0 0.0 0.0 0.0 0.0 0.0 0.0 0.0 0.0 0.0 0.0 0.0 0.0 0.0 0.0 0.0 0.0
nan 0.4 0.7 0.8 0.0 0.0 0.0 0.0 0.0 0.0 2.2 1.3 0.8 0.1 0.0 0.0 0.0 0.0 0.0 0.0 0.0 0.0 0.0 0.0 0.0 0.0 0.0 0.0 0.0 0.0 0.0 0.0 0.0 0.0 0.0 0.0 0.0 0.0 0.0 0.0 0.1 0.0 0.0 0.0
0.0 4.2 0.4 0.2 0.0 0.0 0.0 0.0 0.0 0.0 0.0 0.2 0.1 0.0 0.0 0.0 0.0 0.0 0.0 0.0 0.0 0.0 0.0 0.0 0.0 0.0 0.0 0.0 0.0 0.0 0.0 0.0 0.0 0.0 0.0 0.0 0.0 0.0 0.2 0.2 0.2 0.2 0.2 0.2
0.2 5.5 0.8 4.1 0.1 0.0 0.0 0.0 0.0 0.0 0.0 0.0 0.0 0.0 0.0 0.0 0.0 0.0 0.0 0.0 0.0 0.0 0.0 0.0 0.0 0.0 0.0 0.0 0.0 0.0 0.0 0.0 0.0 0.0 0.0 0.0 0.4 0.6 0.5 0.7 1.0 0.4 0.3 0.3
0.8 2.7 8.2 13.0 0.2 0.5 6.1 1.2 0.0 0.0 0.0 0.0 0.4 0.0 0.0 0.0 0.0 0.0 0.0 0.0 0.0 0.0 0.0 0.0 0.0 0.0 0.0 0.0 0.0 0.0 0.0 0.3 0.5 0.6 1.3 1.3 1.4 1.9 1.1 0.8 1.0 0.7 0.7 0.7
0.6 3.7 6.8 18.8 9.6 28.4 2.1 0.0 0.0 0.0 0.0 0.0 0.0 0.0 0.0 0.0 0.0 0.0 0.0 0.0 0.0 0.0 0.0 0.0 0.0 0.0 0.0 0.0 0.0 0.0 0.4 0.7 0.9 2.2 3.0 1.9 1.6 2.9 0.7 0.6 0.6 0.8 0.6 0.7
0.0 0.4 12.2 30.9 19.9 1.3 0.1 0.0 0.0 0.2 0.8 0.6 1.0 0.7 0.1 0.0 0.0 0.0 0.0 0.0 0.0 0.0 0.0 0.0 0.0 0.0 0.0 0.0 0.0 0.7 0.7 0.7 0.8 0.9 1.4 1.6 2.3 3.3 1.2 3.4 0.8 0.7 2.0 1.3
0.2 0.1 1.5 25.2 31.1 23.4 1.0 0.4 0.1 0.0 1.1 1.2 1.3 0.9 0.7 0.2 2.0 0.2 0.0 0.0 0.0 0.0 0.0 0.0 0.0 0.0 0.0 0.5 0.6 0.7 0.8 0.8 0.9 1.0 0.9 1.2 2.3 4.8 3.8 2.3 3.2 3.5 3.3 3.1
6.1 10.4 14.5 14.6 23.1 7.2 1.5 0.6 0.0 4.9 3.9 1.9 1.8 0.9 0.5 1.6 0.9 0.2 0.0 0.0 0.0 0.0 0.0 0.0 0.0 0.2 0.7 0.8 1.0 0.8 0.7 1.0 1.2 1.8 1.7 1.8 2.4 5.2 3.4 3.8 3.0 4.2 4.4 2.3
2.0 9.7 21.7 16.3 23.4 26.5 0.7 0.4 2.8 2.5 1.2 1.9 0.4 0.6 0.9 0.3 0.1 0.0 0.0 0.0 0.0 0.0 0.0 0.2 1.0 0.7 0.8 1.2 1.5 0.9 0.8 1.0 1.4 1.8 2.1 3.6 5.5 5.4 5.2 8.5 5.1 6.5 5.8 5.6
5.9 2.3 9.0 3.6 5.2 0.4 1.5 1.5 0.2 0.4 1.4 0.7 0.5 0.3 0.1 0.1 0.0 0.0 0.0 0.0 0.0 0.6 1.0 1.2 1.7 1.4 1.0 1.3 2.2 3.4 1.3 1.3 1.9 5.6 7.7 7.9 7.0 7.0 6.9 10.0 5.9 7.4 6.0 6.9
1.2 0.1 2.8 3.0 0.4 0.1 0.0 0.0 0.1 0.2 0.3 0.3 0.3 0.4 0.1 0.1 0.3 0.6 1.0 0.8 0.6 0.8 0.7 1.4 2.0 2.0 1.9 2.6 3.2 3.8 2.4 2.2 11.4 11.0 6.0 4.8 6.0 4.4 5.2 7.0 8.0 10.0 7.2 5.5
0.2 0.6 1.2 2.0 0.1 0.0 0.0 0.0 0.0 0.1 0.4 0.5 0.5 0.4 0.1 0.3 1.0 0.7 1.4 1.4 0.6 0.7 1.2 1.5 1.9 1.8 2.6 2.3 2.9 4.6 4.6 5.0 7.0 7.2 4.1 5.5 7.7 8.4 4.5 3.7 8.0 6.2 3.3 8.0
0.0 0.0 0.1 2.2 0.0 0.0 0.0 0.0 0.0 0.1 0.2 0.3 0.4 0.5 0.5 0.5 0.6 0.7 1.1 0.7 1.2 1.6 1.7 2.1 1.8 2.0 2.9 3.8 4.2 5.9 7.4 7.1 7.1 4.2 5.9 6.0 5.9 4.9 4.1 4.0 3.7 nan nan nan
Water_Equivalent
0.00 0.00 0.00 0.00 0.00 0.00 0.00 0.00 0.00 0.00 0.00 0.00 0.00 0.00 0.00 0.00 0.00 0.00 0.00 0.00 0.00 0.00 0.00 0.00 0.00 0.00 0.00 0.00 0.00 0.00 0.00 0.00 0.00 0.00 0.00 0.00 0.00 0.00 0.00 0.00 0.00 0.00 0.00 0.00
0.00 0.00 0.00 0.00 0.00 0.00 0.00 0.00 0.00 0.00 0.00 0.00 0.00 0.00 0.00 0.00 0.00 0.00 0.00 0.00 0.00 0.00 0.00 0.00 0.00 0.00 0.00 0.00 0.00 0.00 0.00 0.00 0.00 0.00 0.00 0.00 0.00 0.00 0.00 0.00 0.00 0.00 0.00 0.00
0.00 0.00 0.00 0.00 0.00 0.00 0.00 0.00 0.00 0.00 0.00 0.00 0.00 0.00 0.00 0.00 0.00 0.00 0.00 0.00 0.00 0.00 0.00 0.00 0.00 0.00 0.00 0.00 0.00 0.00 0.00 0.00 0.00 0.00 0.00 0.00 0.00 0.00 0.00 0.00 0.00 0.00 0.00 0.00
0.00 0.00 0.00 0.00 0.00 0.00 0.00 0.00 0.00 0.00 0.00 0.00 0.00 0.00 0.00 0.00 0.00 0.00 0.00 0.00 0.00 0.00 0.00 0.00 0.00 0.00 0.00 0.00 0.00 0.00 0.00 0.00 0.00 0.00 0.00 0.00 0.00 0.00 0.00 0.00 0.00 0.00 0.00 0.00
0.00 0.00 0.00 0.00 0.00 0.00 0.00 0.00 0.00 0.00 0.00 0.00 0.00 0.00 0.00 0.00 0.00 0.00 0.00 0.00 0.00 0.00 0.00 0.00 0.00 0.00 0.00 0.00 0.00 0.00 0.00 0.00 0.00 0.00 0.00 0.00 0.00 0.00 0.00 0.00 0.00 0.00 0.00 0.00
0.00 0.00 0.00 0.00 0.00 0.00 0.00 0.00 0.00 0.00 0.00 0.05 0.00 0.00 0.00 0.00 0.00 0.00 0.00 0.00 0.00 0.00 0.00 0.00 0.00 0.00 0.00 0.00 0.00 0.00 0.00 0.00 0.00 0.00 0.00 0.00 0.00 0.00 0.00 0.00 0.00 0.00 0.00 0.00
0.00 0.00 0.00 0.00 0.00 0.00 0.00 0.00 0.07 0.14 0.33 0.19 0.00 0.03 0.00 0.00 0.00 0.00 0.00 0.00 0.00 0.00 0.00 0.00 0.00 0.00 0.00 0.00 0.00 0.00 0.00 0.00 0.00 0.00 0.00 0.00 0.00 0.00 0.00 0.00 0.00 0.00 0.00 0.00
0.00 0.00 0.00 0.00 0.00 0.00 0.00 0.00 0.14 0.37 0.32 0.14 0.05 0.06 0.01 0.00 0.00 0.00 0.00 0.00 0.00 0.00 0.00 0.00 0.00 0.00 0.00 0.00 0.00 0.00 0.00 0.00 0.00 0.00 0.00 0.00 0.00 0.00 0.00 0.00 0.00 0.00 0.00 0.00
0.00 0.00 0.00 0.00 0.00 0.00 0.00 0.00 0.00 0.08 0.59 0.49 0.00 0.00 0.00 0.00 0.00 0.00 0.00 0.00 0.00 0.00 0.00 0.00 0.00 0.00 0.00 0.00 0.00 0.00 0.00 0.00 0.00 0.00 0.00 0.00 0.00 0.00 0.00 0.00 0.00 0.00 0.00 0.00
0.00 0.01 0.00 0.00 0.00 0.00 0.00 0.00 0.06 0.07 0.65 0.48 0.00 0.00 0.00 0.00 0.00 0.00 0.00 0.00 0.00 0.00 0.00 0.00 0.00 0.00 0.00 0.00 0.00 0.00 0.00 0.00 0.00 0.00 0.00 0.00 0.00 0.00 0.00 0.00 0.00 0.00 0.00 0.00
0.00 0.00 0.00 0.00 0.00 0.00 0.00 0.00 0.00 0.00 0.08 0.37 0.31 0.05 0.00 0.00 0.00 0.00 0.00 0.00 0.00 0.00 0.00 0.00 0.00 0.00 0.00 0.00 0.00 0.00 0.00 0.00 0.00 0.00 0.00 0.00 0.00 0.00 0.00 0.00 0.00 0.00 0.00 0.00
0.00 0.00 0.18 0.00 0.00 0.00 0.00 0.00 0.00 0.15 0.10 0.11 0.25 0.12 0.00 0.00 0.00 0.00 0.00 0.00 0.00 0.00 0.00 0.00 0.00 0.00 0.00 0.00 0.00 0.00 0.00 0.00 0.00 0.00 0.00 0.00 0.00 0.00 0.00 0.00 0.00 0.00 0.00 0.00
0.00 0.28 0.74 0.37 0.00 0.00 0.00 0.00 0.00 0.00 0.08 0.17 0.70 0.15 0.00 0.00 0.00 0.00 0.00 0.00 0.00 0.00 0.00 0.00 0.00 0.00 0.00 0.00 0.00 0.00 0.00 0.00 0.00 0.00 0.00 0.00 0.00 0.00 0.00 0.00 0.00 0.00 0.00 0.00
nan 0.08 0.12 0.13 0.01 0.00 0.00 0.00 0.00 0.00 0.32 0.19 0.13 0.01 0.00 0.00 0.00 0.00 0.00 0.00 0.00 0.00 0.00 0.00 0.00 0.00 0.00 0.00 0.00 0.00 0.00 0.00 0.00 0.00 0.00 0.00 0.00 0.00 0.00 0.00 0.01 0.00 0.00 0.00
0.01 0.67 0.08 0.04 0.00 0.00 0.00 0.00 0.00 0.00 0.00 0.02 0.01 0.00 0.00 0.00 0.00 0.00 0.00 0.00 0.00 0.00 0.00 0.00 0.00 0.00 0.00 0.00 0.00 0.00 0.00 0.00 0.00 0.00 0.00 0.00 0.00 0.00 0.02 0.03 0.03 0.03 0.03 0.02
0.04 0.91 0.14 0.63 0.03 0.01 0.00 0.00 0.00 0.00 0.00 0.00 0.00 0.00 0.00 0.00 0.00 0.00 0.00 0.00 0.00 0.00 0.00 0.00 0.00 0.00 0.00 0.00 0.00 0.00 0.00 0.00 0.00 0.00 0.00 0.00 0.05 0.07 0.06 0.08 0.12 0.05 0.03 0.04
0.16 0.50 1.16 1.51 0.03 0.08 0.69 0.21 0.00 0.00 0.00 0.00 0.06 0.00 0.00 0.00 0.00 0.00 0.00 0.00 0.00 0.00 0.00 0.00 0.00 0.00 0.00 0.00 0.00 0.00 0.00 0.03 0.05 0.06 0.13 0.14 0.15 0.20 0.12 0.09 0.11 0.09 0.09 0.09
0.12 0.68 1.20 2.21 1.21 2.71 0.32 0.00 0.00 0.00 0.00 0.00 0.00 0.00 0.01 0.00 0.00 0.00 0.00 0.01 0.00 0.00 0.00 0.00 0.00 0.00 0.00 0.00 0.00 0.00 0.05 0.07 0.09 0.22 0.30 0.19 0.16 0.29 0.07 0.07 0.07 0.10 0.07 0.09
0.01 0.09 1.57 3.50 2.22 0.23 0.02 0.00 0.01 0.03 0.12 0.09 0.15 0.10 0.02 0.00 0.00 0.00 0.00 0.00 0.00 0.00 0.00 0.00 0.00 0.00 0.00 0.00 0.00 0.07 0.07 0.07 0.08 0.09 0.14 0.16 0.23 0.32 0.12 0.35 0.08 0.07 0.22 0.15
0.04 0.03 0.32 3.05 3.47 2.44 0.13 0.06 0.01 0.00 0.15 0.17 0.19 0.13 0.11 0.03 0.31 0.04 0.00 0.00 0.00 0.00 0.00 0.00 0.00 0.00 0.00 0.06 0.06 0.07 0.07 0.08 0.08 0.09 0.08 0.11 0.21 0.44 0.35 0.22 0.32 0.37 0.36 0.34
0.67 1.24 1.68 1.79 2.60 0.93 0.21 0.09 0.01 0.52 0.44 0.31 0.27 0.13 0.08 0.25 0.14 0.03 0.00 0.00 0.00 0.00 0.00 0.00 0.00 0.02 0.07 0.08 0.09 0.07 0.07 0.09 0.11 0.16 0.14 0.16 0.21 0.47 0.31 0.36 0.31 0.43 0.47 0.25
0.22 1.01 2.34 1.77 2.50 2.79 0.14 0.09 0.35 0.39 0.25 0.31 0.07 0.10 0.14 0.04 0.02 0.01 0.01 0.00 0.00 0.00 0.00 0.03 0.10 0.07 0.08 0.11 0.12 0.08 0.08 0.09 0.12 0.15 0.17 0.31 0.51 0.49 0.50 0.87 0.54 0.72 0.64 0.63
0.63 0.27 0.94 0.40 0.55 0.06 0.25 0.23 0.04 0.09 0.23 0.12 0.07 0.05 0.01 0.01 0.01 0.00 0.01 0.00 0.00 0.08 0.11 0.13 0.17 0.14 0.10 0.13 0.20 0.27 0.11 0.11 0.16 0.52 0.74 0.75 0.67 0.67 0.67 1.02 0.61 0.85 0.72 0.86
0.21 0.03 0.40 0.39 0.05 0.01 0.00 0.00 0.01 0.03 0.06 0.05 0.04 0.06 0.01 0.01 0.05 0.08 0.14 0.11 0.07 0.09 0.07 0.15 0.21 0.18 0.17 0.24 0.29 0.33 0.20 0.18 1.13 1.07 0.55 0.44 0.55 0.44 0.53 0.75 0.89 1.21 0.90 0.70
0.05 0.12 0.22 0.32 0.02 0.00 0.00 0.00 0.01 0.02 0.06 0.07 0.07 0.06 0.02 0.05 0.14 0.09 0.19 0.18 0.08 0.07 0.12 0.14 0.19 0.17 0.22 0.19 0.23 0.37 0.34 0.41 0.64 0.68 0.36 0.51 0.74 0.84 0.46 0.39 0.70 0.57 0.34 0.82
0.00 0.00 0.02 0.26 0.00 0.00 0.00 0.00 0.00 0.02 0.04 0.05 0.06 0.07 0.07 0.07 0.08 0.09 0.14 0.09 0.14 0.17 0.17 0.20 0.16 0.16 0.20 0.26 0.29 0.43 0.59 0.59 0.61 0.35 0.55 0.56 0.56 0.49 0.42 0.41 0.37 nan nan nan
SL_Ratio
nan nan nan nan nan nan nan nan nan nan nan nan nan nan nan nan nan nan nan nan nan nan nan nan nan nan nan nan nan nan nan nan nan nan nan nan nan nan nan nan nan nan nan nan
nan nan nan nan nan nan nan nan nan nan nan nan nan nan nan nan nan nan nan nan nan nan nan nan nan nan nan nan nan nan nan nan nan nan nan nan nan nan nan nan nan nan nan nan
nan nan nan nan nan nan nan nan nan nan nan nan nan nan nan nan nan nan nan nan nan nan nan nan nan nan nan nan nan nan nan nan nan nan nan nan nan nan nan nan nan nan nan nan
nan nan nan nan nan nan nan nan nan nan nan nan nan 5.8 nan nan nan nan nan nan nan nan nan nan nan nan nan nan nan nan nan nan nan nan nan nan nan nan nan nan nan nan nan nan
nan nan nan nan nan nan nan nan nan nan nan nan nan nan nan nan nan nan nan nan nan nan nan nan nan nan nan nan nan nan nan nan nan nan nan nan nan nan nan nan nan nan nan nan
nan nan nan nan nan nan nan nan nan nan nan 6.3 nan nan nan nan nan nan nan nan nan nan nan nan nan nan nan nan nan nan nan nan nan nan nan nan nan nan nan nan nan nan nan nan
nan nan nan nan nan nan nan nan 6.0 6.3 6.4 6.1 nan 5.9 nan nan nan nan nan nan nan nan nan nan nan nan nan nan nan nan nan nan nan nan nan nan nan nan nan nan nan nan nan nan
nan nan nan nan nan nan nan nan 6.0 8.0 7.1 5.8 6.5 6.6 5.0 nan nan nan nan nan nan nan nan nan nan nan nan nan nan nan nan nan nan nan nan nan nan nan nan nan nan nan nan nan
4.3 5.0 nan nan nan nan nan nan nan 6.6 8.5 7.6 nan nan nan nan nan nan nan nan nan nan nan nan nan nan nan nan nan nan nan nan nan nan nan nan nan nan nan nan nan nan nan nan
nan 5.3 nan nan nan nan nan nan 6.6 6.4 8.2 8.9 nan nan nan nan nan nan nan nan nan nan nan nan nan nan nan nan nan nan nan nan nan nan nan nan nan nan nan nan nan nan nan nan
nan 5.0 4.4 nan nan nan nan nan nan nan 6.4 7.7 7.7 5.8 nan nan nan nan nan nan nan nan nan nan nan nan nan nan nan nan nan nan nan nan nan nan nan nan nan nan nan nan nan nan
nan nan 6.1 nan nan nan nan nan nan 5.9 7.1 6.5 6.2 7.4 nan nan nan nan nan nan nan nan nan nan nan nan nan nan nan nan nan nan nan nan nan nan nan nan nan nan nan nan nan nan
nan 5.8 6.8 6.9 6.9 nan nan nan nan nan 5.5 7.3 7.8 7.1 nan nan nan nan nan nan nan nan nan nan nan nan nan nan nan nan nan nan nan nan nan nan nan nan nan nan nan nan nan nan
nan 5.3 6.0 6.2 5.2 nan 5.5 nan nan nan 6.9 6.9 6.6 6.2 nan nan nan nan nan nan nan nan nan nan nan nan nan nan nan nan nan nan nan nan nan nan nan nan nan nan 7.4 nan nan nan
4.4 6.3 5.1 5.1 5.0 nan nan nan nan 4.3 4.6 7.4 5.0 nan nan nan nan nan nan nan nan nan nan nan nan nan nan nan nan nan nan nan nan nan nan nan nan nan 7.8 8.0 8.0 8.0 8.0 7.9
5.0 6.1 5.4 6.5 5.0 6.1 6.0 nan nan nan nan nan nan nan nan nan nan nan nan nan nan nan nan nan nan nan nan nan nan nan nan nan 10.0 9.3 8.3 10.0 9.3 9.0 8.9 8.7 8.6 8.5 8.3 8.1
5.0 5.4 7.0 8.6 6.0 6.6 9.0 5.8 5.0 nan nan nan 6.8 nan nan nan nan nan nan nan 5.0 nan nan nan nan nan nan nan nan nan nan 8.6 10.1 9.9 9.9 9.9 9.6 9.4 9.2 9.0 8.8 8.5 8.2 8.0
4.7 5.4 5.7 8.5 7.9 10.5 6.3 nan nan nan nan nan nan 6.5 6.1 5.0 nan nan nan 5.0 nan nan nan nan nan nan nan nan nan nan 8.8 10.1 10.1 10.1 9.9 10.0 10.0 10.0 9.3 9.0 8.9 8.7 8.7 8.6
3.8 4.3 7.8 8.8 8.9 5.8 4.6 7.1 7.2 6.5 6.9 6.6 7.0 6.7 6.9 nan nan nan nan nan 5.0 nan nan nan nan nan nan nan nan 10.1 10.3 10.2 10.3 10.2 10.4 10.1 10.3 10.5 10.1 9.8 10.1 10.4 9.3 8.8
4.6 4.2 4.9 8.3 8.9 9.6 7.6 6.7 7.0 6.3 7.2 6.8 6.6 6.9 7.0 6.1 6.5 5.9 6.7 nan nan nan nan nan nan nan 8.3 8.7 10.2 10.4 10.6 10.6 11.0 11.1 11.2 11.1 11.1 10.7 10.9 10.4 10.2 9.4 9.0 9.2
9.1 8.4 8.6 8.2 8.9 7.7 7.3 7.1 6.3 9.4 9.0 6.1 6.6 6.6 6.6 6.4 6.3 5.9 nan nan nan nan nan nan nan 9.6 10.1 10.9 11.0 10.6 10.4 11.0 11.0 11.2 11.7 11.7 11.4 10.9 11.2 10.5 9.6 9.8 9.3 9.1
8.9 9.6 9.3 9.2 9.4 9.5 5.2 4.4 7.9 6.5 4.9 6.2 5.9 6.0 6.5 6.1 5.5 5.6 5.8 5.8 6.3 5.9 5.8 8.5 10.1 10.2 10.4 10.5 12.0 11.3 10.7 10.8 11.6 11.9 12.7 11.4 10.8 11.0 10.5 9.8 9.6 9.0 9.1 8.9
9.2 8.4 9.6 9.0 9.4 5.9 6.1 6.4 5.3 4.5 6.0 6.0 6.1 6.0 6.3 6.6 6.7 5.9 5.7 5.3 5.0 7.4 8.9 9.3 9.6 9.9 10.1 10.3 11.4 12.7 11.8 12.1 12.3 10.6 10.4 10.6 10.5 10.4 10.3 9.7 9.6 8.7 8.3 8.0
5.4 4.7 6.9 7.7 6.5 6.5 5.5 5.0 4.9 5.7 5.8 5.7 6.1 6.3 6.2 6.0 6.4 7.1 7.4 7.7 8.6 9.4 9.8 9.3 9.7 10.7 11.2 10.7 10.9 11.4 12.2 12.0 10.0 10.3 10.8 10.9 10.8 9.9 9.8 9.3 9.0 8.3 8.0 7.8
5.1 4.8 5.5 6.3 5.2 6.3 5.0 5.0 5.5 4.8 6.2 6.6 6.9 6.6 6.7 6.6 7.2 7.2 7.7 7.8 7.7 9.2 10.0 10.3 10.3 10.6 11.4 12.2 12.6 12.4 13.3 12.4 11.0 10.7 11.5 10.9 10.3 10.0 9.8 9.6 11.5 10.9 9.7 9.8
nan 5.6 7.0 8.4 nan nan 5.0 nan 3.9 4.4 5.9 6.2 6.5 7.1 7.2 7.0 7.1 7.5 7.6 7.7 8.4 9.2 10.4 10.7 11.3 12.5 14.7 14.7 14.5 13.6 12.4 12.0 11.7 11.7 10.7 10.8 10.7 10.2 9.7 9.7 9.9 nan nan nan